User: anonymous   Login
Location: Chiroubles
(46.1812°N, 4.6660°E)
Time: 16:12:10
(UTC+00:00)
Language:

CZ-2C R/B - Orbit

View from above orbital plane
View from above orbital plane
View from above satellite
View from above satellite

Ground track
Ground track

The orbit data is extracted from the following two-line orbital elements,

1 31114U 07010B   20292.60246186 +.00000011 +00000-0 +24160-4 0  9995
2 31114 098.2467 137.1307 0058541 268.2524 091.1948 14.19333280700476
Epoch (UTC): 18 October 2020 14:27:32
Eccentricity: 0.0058541
inclination: 98.2467°
perigee height: 785 km
apogee height: 870 km
right ascension of ascending node: 137.1307°
argument of perigee: 268.2524°
revolutions per day: 14.19333280
mean anomaly at epoch: 91.1948°
orbit number at epoch: 70047

The dashed part of the orbit path shows where the satellite is in the earth's shadow,  

DLR